sat.trackr.live / text

‹ back to catalog

STARLINK-31019

NORAD 58540 · 2023-192K

PAYLOAD ACTIVE UNKNOWN

§ Identity

Operator
Country
US
Launch date
2023-12-08
Launch site
AFWTR
Launch vehicle
Mass (kg)
RCS (m²)

Purposes: comms

External: N2YO · Heavens-Above · Gunter

§ Orbital elements

Epoch: 2026-05-25T04:22:47.173152Z

Period
93.85 min
Inclination
53.1615°
Eccentricity
0.0001190
Mean motion
15.34391780 rev/d
Perigee alt
461.9 km
Apogee alt
463.5 km
Semi-major
6,840.9 km
B*
4.2497e-5
RAAN
66.9518°
Arg perigee
79.0183°
Mean anomaly
281.0953°
Rev number
13,770

§ Raw data

STARLINK-310191 58540U 23192K   26145.18249043  .00001059  00000+0  42497-4 0  99922 58540  53.1615  66.9518 0001190  79.0183 281.0953 15.34391780137706

JSON: /api/v1/satellites/58540 · /tle

For live sub-satellite position, see the globe view (requires WebGL).

§ Visibility from observer

Set your observer location to see the next 7 days of passes ≥ 10°. The values pass through the URL so the page stays shareable.

No JS? Fill the form by hand. The geolocation button needs JavaScript.